| time (UTC) | temp F | wind direction | speed MPH | gust MPH | rain 1hr in | rain 24hr in | rain mn in | humidity % | barometer mb |
| 20260506213057 | 86 | 165 | 0.0 | 0.0 | 0.00 | 0.00 | 0.00 | 75 | 1007.4 |
| 20260506212554 | 85 | 229 | 1.0 | 2.0 | 0.00 | 0.00 | 0.00 | 74 | 1007.4 |
| 20260506212048 | 86 | 155 | 0.0 | 0.0 | 0.00 | 0.00 | 0.00 | 75 | 1007.3 |
| 20260506211545 | 86 | 174 | 0.0 | 0.0 | 0.00 | 0.00 | 0.00 | 74 | 1007.4 |
| 20260506211042 | 85 | 215 | 0.0 | 1.0 | 0.00 | 0.00 | 0.00 | 74 | 1007.4 |
| 20260506210538 | 86 | 169 | 0.0 | 0.0 | 0.00 | 0.00 | 0.00 | 74 | 1007.3 |
| 20260506210035 | 86 | 185 | 1.0 | 2.0 | 0.00 | 0.00 | 0.00 | 74 | 1007.6 |
| 20260506205532 | 85 | 162 | 0.0 | 0.0 | 0.00 | 0.00 | 0.00 | 76 | 1007.6 |
| 20260506205027 | 87 | 165 | 0.0 | 0.0 | 0.00 | 0.00 | 0.00 | 73 | 1007.6 |
| 20260506204525 | 86 | 186 | 1.0 | 2.0 | 0.00 | 0.00 | 0.00 | 73 | 1007.6 |
| 20260506204022 | 86 | 235 | 0.0 | 1.0 | 0.00 | 0.00 | 0.00 | 75 | 1007.5 |
| 20260506203520 | 86 | 165 | 0.0 | 0.0 | 0.00 | 0.00 | 0.00 | 75 | 1007.4 |
| 20260506203016 | 86 | 201 | 3.0 | 3.0 | 0.00 | 0.00 | 0.00 | 75 | 1007.5 |
| 20260506202514 | 85 | 159 | 0.0 | 0.0 | 0.00 | 0.00 | 0.00 | 76 | 1007.6 |
| 20260506202010 | 85 | 145 | 0.0 | 0.0 | 0.00 | 0.00 | 0.00 | 76 | 1007.6 |
| 20260506201508 | 86 | 145 | 0.0 | 1.0 | 0.00 | 0.00 | 0.00 | 75 | 1007.7 |
| 20260506201004 | 85 | 184 | 0.0 | 0.0 | 0.00 | 0.00 | 0.00 | 76 | 1007.8 |
| 20260506200501 | 85 | 175 | 1.0 | 2.0 | 0.00 | 0.00 | 0.00 | 76 | 1008.0 |
| 20260506195957 | 84 | 175 | 0.0 | 0.0 | 0.00 | 0.00 | 0.00 | 78 | 1008.1 |
| 20260506195454 | 83 | 158 | 0.0 | 0.0 | 0.00 | 0.00 | 0.00 | 80 | 1008.0 |
| 20260506194950 | 82 | 163 | 0.0 | 0.0 | 0.00 | 0.00 | 0.00 | 81 | 1008.2 |
| 20260506194448 | 82 | 150 | 0.0 | 0.0 | 0.00 | 0.00 | 0.00 | 81 | 1008.2 |
| 20260506193944 | 83 | 155 | 0.0 | 0.0 | 0.00 | 0.00 | 0.00 | 80 | 1008.3 |
| 20260506193442 | 83 | 151 | 0.0 | 0.0 | 0.00 | 0.00 | 0.00 | 79 | 1008.3 |
| 20260506192938 | 83 | 157 | 0.0 | 0.0 | 0.00 | 0.00 | 0.00 | 79 | 1008.4 |
| 20260506192435 | 83 | 155 | 0.0 | 0.0 | 0.00 | 0.00 | 0.00 | 78 | 1008.2 |
| 20260506191932 | 84 | 162 | 0.0 | 0.0 | 0.00 | 0.00 | 0.00 | 78 | 1008.1 |
| 20260506191429 | 84 | 159 | 0.0 | 0.0 | 0.00 | 0.00 | 0.00 | 77 | 1008.4 |
| 20260506190925 | 84 | 153 | 0.0 | 0.0 | 0.00 | 0.00 | 0.00 | 78 | 1008.3 |
| 20260506190422 | 83 | 162 | 0.0 | 0.0 | 0.00 | 0.00 | 0.00 | 78 | 1008.3 |
| 20260506185919 | 83 | 158 | 0.0 | 0.0 | 0.00 | 0.00 | 0.00 | 79 | 1008.1 |
| 20260506185416 | 84 | 147 | 6.0 | 7.0 | 0.00 | 0.00 | 0.00 | 77 | 1008.2 |
| 20260506184913 | 84 | 184 | 0.0 | 1.0 | 0.00 | 0.00 | 0.00 | 78 | 1008.2 |
| 20260506184410 | 83 | 158 | 0.0 | 0.0 | 0.00 | 0.00 | 0.00 | 79 | 1008.2 |
| 20260506183908 | 82 | 137 | 0.0 | 0.0 | 0.00 | 0.00 | 0.00 | 80 | 1008.5 |
| 20260506183402 | 82 | 153 | 0.0 | 0.0 | 0.00 | 0.00 | 0.00 | 80 | 1008.5 |
| 20260506182900 | 82 | 56 | 1.0 | 1.0 | 0.00 | 0.00 | 0.00 | 81 | 1008.7 |
| 20260506182357 | 82 | 90 | 2.0 | 3.0 | 0.00 | 0.00 | 0.00 | 80 | 1008.6 |
| 20260506181854 | 82 | 158 | 3.0 | 3.0 | 0.00 | 0.00 | 0.00 | 79 | 1008.9 |
| 20260506181352 | 82 | 145 | 1.0 | 1.0 | 0.00 | 0.00 | 0.00 | 81 | 1008.8 |
| 20260506180849 | 81 | 161 | 0.0 | 0.0 | 0.00 | 0.00 | 0.00 | 81 | 1009.0 |
| 20260506180345 | 81 | 146 | 0.0 | 0.0 | 0.00 | 0.00 | 0.00 | 81 | 1009.3 |
| 20260506175842 | 82 | 135 | 0.0 | 0.0 | 0.00 | 0.00 | 0.00 | 80 | 1009.4 |
| 20260506175338 | 82 | 147 | 0.0 | 0.0 | 0.00 | 0.00 | 0.00 | 81 | 1009.6 |
| 20260506174835 | 81 | 154 | 0.0 | 0.0 | 0.00 | 0.00 | 0.00 | 82 | 1009.7 |
| 20260506174333 | 81 | 152 | 0.0 | 0.0 | 0.00 | 0.00 | 0.00 | 83 | 1009.9 |
| 20260506173831 | 80 | 153 | 0.0 | 0.0 | 0.00 | 0.00 | 0.00 | 83 | 1010.0 |
| 20260506173327 | 80 | 154 | 0.0 | 0.0 | 0.00 | 0.00 | 0.00 | 83 | 1010.2 |
| 20260506172824 | 80 | 157 | 0.0 | 0.0 | 0.00 | 0.00 | 0.00 | 82 | 1010.3 |
| 20260506172321 | 81 | 142 | 0.0 | 0.0 | 0.00 | 0.00 | 0.00 | 81 | 1010.1 |
| 20260506171818 | 81 | 154 | 0.0 | 0.0 | 0.00 | 0.00 | 0.00 | 82 | 1010.0 |
| 20260506171315 | 82 | 147 | 0.0 | 0.0 | 0.00 | 0.00 | 0.00 | 81 | 1010.1 |
| 20260506170813 | 82 | 155 | 0.0 | 0.0 | 0.00 | 0.00 | 0.00 | 80 | 1010.2 |
| 20260506170308 | 82 | 155 | 0.0 | 0.0 | 0.00 | 0.00 | 0.00 | 81 | 1010.2 |
| 20260506165808 | 81 | 152 | 0.0 | 0.0 | 0.00 | 0.00 | 0.00 | 81 | 1010.2 |
| 20260506165306 | 81 | 153 | 0.0 | 0.0 | 0.00 | 0.00 | 0.00 | 82 | 1010.2 |
| 20260506164801 | 81 | 156 | 0.0 | 0.0 | 0.00 | 0.00 | 0.00 | 81 | 1010.1 |
| 20260506164258 | 82 | 144 | 2.0 | 2.0 | 0.00 | 0.00 | 0.00 | 80 | 1010.0 |
| 20260506163755 | 82 | 168 | 0.0 | 0.0 | 0.00 | 0.00 | 0.00 | 80 | 1010.0 |
| 20260506163250 | 82 | 184 | 1.0 | 1.0 | 0.00 | 0.00 | 0.00 | 79 | 1010.0 |
| 20260506162746 | 82 | 237 | 1.0 | 2.0 | 0.00 | 0.00 | 0.00 | 79 | 1009.7 |
| 20260506162244 | 82 | 152 | 0.0 | 0.0 | 0.00 | 0.00 | 0.00 | 79 | 1009.6 |
| 20260506161741 | 83 | 223 | 2.0 | 3.0 | 0.00 | 0.00 | 0.00 | 79 | 1009.5 |
| 20260506161239 | 82 | 150 | 0.0 | 0.0 | 0.00 | 0.00 | 0.00 | 81 | 1009.3 |
| 20260506160736 | 82 | 161 | 2.0 | 3.0 | 0.00 | 0.00 | 0.00 | 80 | 1009.3 |
| 20260506160232 | 82 | 170 | 2.0 | 3.0 | 0.00 | 0.00 | 0.00 | 80 | 1009.4 |
| 20260506155731 | 82 | 131 | 2.0 | 3.0 | 0.00 | 0.00 | 0.00 | 80 | 1009.1 |
| 20260506155227 | 82 | 198 | 1.0 | 2.0 | 0.00 | 0.00 | 0.00 | 80 | 1009.2 |
| 20260506153335 | 82 | 152 | 3.0 | 3.0 | 0.00 | 0.00 | 0.00 | 81 | 1009.2 |
| 20260506152832 | 81 | 163 | 0.0 | 0.0 | 0.00 | 0.00 | 0.00 | 81 | 1009.5 |
| 20260506152329 | 81 | 152 | 0.0 | 0.0 | 0.00 | 0.00 | 0.00 | 82 | 1009.4 |
| 20260506151828 | 80 | 143 | 0.0 | 1.0 | 0.00 | 0.00 | 0.00 | 83 | 1009.3 |
| 20260506151324 | 80 | 175 | 1.0 | 2.0 | 0.00 | 0.00 | 0.00 | 82 | 1009.5 |
| 20260506150821 | 80 | 161 | 0.0 | 0.0 | 0.00 | 0.00 | 0.00 | 83 | 1009.5 |
| 20260506150318 | 80 | 167 | 0.0 | 0.0 | 0.00 | 0.00 | 0.00 | 83 | 1009.6 |
| 20260506145814 | 80 | 150 | 0.0 | 0.0 | 0.00 | 0.00 | 0.00 | 84 | 1009.3 |
| 20260506145311 | 79 | 140 | 0.0 | 0.0 | 0.00 | 0.00 | 0.00 | 85 | 1009.1 |
| 20260506144809 | 79 | 162 | 0.0 | 0.0 | 0.00 | 0.00 | 0.00 | 86 | 1008.9 |
| 20260506144305 | 78 | 157 | 0.0 | 0.0 | 0.00 | 0.00 | 0.00 | 86 | 1008.8 |
| 20260506143803 | 78 | 151 | 0.0 | 0.0 | 0.00 | 0.00 | 0.00 | 87 | 1008.9 |
| 20260506143300 | 78 | 148 | 0.0 | 0.0 | 0.00 | 0.00 | 0.00 | 87 | 1008.8 |
| 20260506142758 | 78 | 155 | 0.0 | 0.0 | 0.00 | 0.00 | 0.00 | 87 | 1009.0 |
| 20260506142256 | 78 | 138 | 2.0 | 3.0 | 0.00 | 0.00 | 0.00 | 87 | 1008.9 |
| 20260506141754 | 78 | 182 | 1.0 | 3.0 | 0.00 | 0.00 | 0.00 | 88 | 1008.8 |
| 20260506141252 | 77 | 156 | 0.0 | 0.0 | 0.00 | 0.00 | 0.00 | 88 | 1008.9 |
| 20260506140749 | 77 | 200 | 1.0 | 2.0 | 0.00 | 0.00 | 0.00 | 88 | 1008.8 |
| 20260506140246 | 77 | 155 | 1.0 | 3.0 | 0.00 | 0.00 | 0.00 | 89 | 1008.9 |
| 20260506135743 | 77 | 170 | 0.0 | 0.0 | 0.00 | 0.00 | 0.00 | 89 | 1009.0 |
| 20260506135239 | 77 | 145 | 0.0 | 0.0 | 0.00 | 0.00 | 0.00 | 89 | 1008.9 |
| 20260506134736 | 77 | 125 | 0.0 | 1.0 | 0.00 | 0.00 | 0.00 | 89 | 1008.9 |
| 20260506134233 | 77 | 157 | 0.0 | 0.0 | 0.00 | 0.00 | 0.00 | 89 | 1008.8 |
| 20260506133730 | 77 | 153 | 0.0 | 0.0 | 0.00 | 0.00 | 0.00 | 89 | 1008.9 |
| 20260506133226 | 77 | 158 | 1.0 | 1.0 | 0.00 | 0.00 | 0.00 | 89 | 1009.1 |
| 20260506132723 | 76 | 161 | 0.0 | 0.0 | 0.00 | 0.00 | 0.00 | 89 | 1009.0 |
| 20260506132220 | 76 | 129 | 0.0 | 0.0 | 0.00 | 0.00 | 0.00 | 89 | 1008.9 |
| 20260506131718 | 76 | 151 | 0.0 | 0.0 | 0.00 | 0.00 | 0.00 | 89 | 1009.0 |
| 20260506131214 | 76 | 147 | 0.0 | 1.0 | 0.00 | 0.00 | 0.00 | 89 | 1009.0 |
| 20260506130711 | 76 | 146 | 0.0 | 0.0 | 0.00 | 0.00 | 0.00 | 89 | 1009.1 |
| 20260506130208 | 76 | 148 | 0.0 | 0.0 | 0.00 | 0.00 | 0.00 | 89 | 1008.9 |
| 20260506125706 | 76 | 156 | 0.0 | 0.0 | 0.00 | 0.00 | 0.00 | 89 | 1009.2 |
| 20260506125204 | 76 | 154 | 0.0 | 0.0 | 0.00 | 0.00 | 0.00 | 89 | 1008.8 |
| 20260506124702 | 76 | 160 | 0.0 | 0.0 | 0.00 | 0.00 | 0.00 | 89 | 1008.8 |
| 20260506124159 | 76 | 130 | 0.0 | 0.0 | 0.00 | 0.00 | 0.00 | 89 | 1008.6 |
| 20260506123656 | 76 | 141 | 0.0 | 0.0 | 0.00 | 0.00 | 0.00 | 89 | 1008.8 |
| 20260506123155 | 76 | 138 | 0.0 | 0.0 | 0.00 | 0.00 | 0.00 | 89 | 1008.6 |
| 20260506122652 | 76 | 154 | 0.0 | 0.0 | 0.00 | 0.00 | 0.00 | 89 | 1008.6 |
| 20260506122149 | 76 | 146 | 0.0 | 0.0 | 0.00 | 0.00 | 0.00 | 89 | 1008.6 |
| 20260506121647 | 76 | 152 | 0.0 | 0.0 | 0.00 | 0.00 | 0.00 | 89 | 1008.6 |
| 20260506121143 | 76 | 157 | 0.0 | 0.0 | 0.00 | 0.00 | 0.00 | 89 | 1008.5 |
| 20260506120641 | 76 | 154 | 0.0 | 0.0 | 0.00 | 0.00 | 0.00 | 89 | 1008.3 |
| 20260506120138 | 76 | 152 | 0.0 | 0.0 | 0.00 | 0.00 | 0.00 | 89 | 1008.3 |
| 20260506115637 | 76 | 145 | 0.0 | 0.0 | 0.00 | 0.00 | 0.00 | 89 | 1008.5 |
| 20260506115134 | 76 | 152 | 0.0 | 0.0 | 0.00 | 0.00 | 0.00 | 89 | 1008.4 |
| 20260506114631 | 76 | 151 | 0.0 | 0.0 | 0.00 | 0.00 | 0.00 | 89 | 1008.4 |
| 20260506114129 | 76 | 197 | 0.0 | 0.0 | 0.00 | 0.00 | 0.00 | 88 | 1008.2 |
| 20260506113627 | 76 | 157 | 0.0 | 0.0 | 0.00 | 0.00 | 0.00 | 88 | 1008.3 |
| 20260506113124 | 76 | 149 | 0.0 | 0.0 | 0.00 | 0.00 | 0.00 | 88 | 1008.3 |
| 20260506112620 | 76 | 153 | 0.0 | 0.0 | 0.00 | 0.00 | 0.00 | 88 | 1008.4 |
| 20260506112118 | 76 | 161 | 0.0 | 0.0 | 0.00 | 0.00 | 0.00 | 88 | 1008.4 |
| 20260506111616 | 76 | 154 | 0.0 | 0.0 | 0.00 | 0.00 | 0.00 | 88 | 1008.1 |
| 20260506111113 | 76 | 178 | 0.0 | 1.0 | 0.00 | 0.00 | 0.00 | 88 | 1008.2 |
| 20260506110610 | 76 | 167 | 0.0 | 0.0 | 0.00 | 0.00 | 0.00 | 88 | 1008.3 |
| 20260506110108 | 76 | 102 | 0.0 | 0.0 | 0.00 | 0.00 | 0.00 | 88 | 1007.9 |
| 20260506105604 | 76 | 153 | 0.0 | 0.0 | 0.00 | 0.00 | 0.00 | 88 | 1008.0 |
| 20260506105101 | 76 | 206 | 2.0 | 2.0 | 0.00 | 0.00 | 0.00 | 88 | 1007.9 |
| 20260506104559 | 76 | 164 | 2.0 | 2.0 | 0.00 | 0.00 | 0.00 | 88 | 1007.5 |
| 20260506104056 | 76 | 173 | 0.0 | 0.0 | 0.00 | 0.00 | 0.00 | 88 | 1007.6 |
| 20260506103554 | 76 | 173 | 1.0 | 1.0 | 0.00 | 0.00 | 0.00 | 88 | 1007.5 |
| 20260506103050 | 76 | 55 | 0.0 | 0.0 | 0.00 | 0.00 | 0.00 | 88 | 1007.4 |
| 20260506102549 | 76 | 57 | 0.0 | 0.0 | 0.00 | 0.00 | 0.00 | 88 | 1007.4 |
| 20260506102046 | 76 | 64 | 1.0 | 1.0 | 0.00 | 0.00 | 0.00 | 88 | 1007.5 |
| 20260506101542 | 76 | 49 | 0.0 | 0.0 | 0.00 | 0.00 | 0.00 | 88 | 1007.7 |
| 20260506101039 | 77 | 52 | 0.0 | 0.0 | 0.00 | 0.00 | 0.00 | 88 | 1007.8 |
| 20260506100538 | 76 | 52 | 0.0 | 0.0 | 0.00 | 0.00 | 0.00 | 88 | 1007.7 |
| 20260506100035 | 76 | 151 | 0.0 | 0.0 | 0.00 | 0.00 | 0.00 | 88 | 1007.6 |
| 20260506095534 | 76 | 167 | 0.0 | 0.0 | 0.00 | 0.00 | 0.00 | 88 | 1007.6 |
| 20260506095030 | 76 | 154 | 0.0 | 0.0 | 0.00 | 0.00 | 0.00 | 88 | 1007.4 |
| 20260506094528 | 76 | 168 | 0.0 | 0.0 | 0.00 | 0.00 | 0.00 | 89 | 1007.3 |
| 20260506094026 | 76 | 152 | 0.0 | 0.0 | 0.00 | 0.00 | 0.00 | 89 | 1007.4 |
| 20260506093524 | 76 | 147 | 0.0 | 0.0 | 0.00 | 0.00 | 0.00 | 89 | 1007.2 |
| 20260506093021 | 76 | 164 | 0.0 | 0.0 | 0.00 | 0.00 | 0.00 | 89 | 1007.3 |
| 20260506092519 | 76 | 154 | 0.0 | 0.0 | 0.00 | 0.00 | 0.00 | 89 | 1007.2 |
| 20260506092015 | 76 | 130 | 0.0 | 1.0 | 0.00 | 0.00 | 0.00 | 89 | 1007.0 |
| 20260506091514 | 76 | 154 | 0.0 | 0.0 | 0.00 | 0.00 | 0.00 | 89 | 1007.2 |
| 20260506091010 | 76 | 154 | 0.0 | 0.0 | 0.00 | 0.00 | 0.00 | 89 | 1006.9 |
| 20260506090508 | 76 | 117 | 0.0 | 0.0 | 0.00 | 0.00 | 0.00 | 89 | 1006.9 |
| 20260506090004 | 76 | 183 | 0.0 | 0.0 | 0.00 | 0.00 | 0.00 | 88 | 1006.9 |
| 20260506085501 | 76 | 178 | 0.0 | 0.0 | 0.00 | 0.00 | 0.00 | 88 | 1006.9 |
| 20260506084958 | 76 | 171 | 0.0 | 0.0 | 0.00 | 0.00 | 0.00 | 88 | 1007.0 |
| 20260506084454 | 76 | 180 | 2.0 | 3.0 | 0.00 | 0.00 | 0.00 | 88 | 1007.1 |
| 20260506083950 | 76 | 196 | 2.0 | 3.0 | 0.00 | 0.00 | 0.00 | 88 | 1006.9 |
| 20260506083448 | 76 | 121 | 3.0 | 6.0 | 0.00 | 0.00 | 0.00 | 88 | 1006.9 |
| 20260506082945 | 76 | 166 | 0.0 | 1.0 | 0.00 | 0.00 | 0.00 | 88 | 1007.0 |
| 20260506082442 | 76 | 160 | 0.0 | 0.0 | 0.00 | 0.00 | 0.00 | 88 | 1007.1 |
| 20260506081938 | 76 | 154 | 2.0 | 2.0 | 0.00 | 0.00 | 0.00 | 88 | 1007.1 |
| 20260506081436 | 76 | 142 | 0.0 | 0.0 | 0.00 | 0.00 | 0.00 | 88 | 1007.0 |
| 20260506080933 | 76 | 171 | 1.0 | 2.0 | 0.00 | 0.00 | 0.00 | 88 | 1006.9 |
| 20260506080430 | 76 | 153 | 1.0 | 2.0 | 0.00 | 0.00 | 0.00 | 88 | 1007.0 |
| 20260506073414 | 77 | 170 | 0.0 | 1.0 | 0.00 | 0.00 | 0.00 | 88 | 1007.3 |
| 20260506072911 | 77 | 156 | 1.0 | 1.0 | 0.00 | 0.00 | 0.00 | 87 | 1007.7 |
| 20260506072408 | 77 | 171 | 1.0 | 1.0 | 0.00 | 0.00 | 0.00 | 87 | 1007.4 |
| 20260506071906 | 77 | 135 | 1.0 | 2.0 | 0.00 | 0.00 | 0.00 | 87 | 1007.6 |
| 20260506071404 | 77 | 152 | 0.0 | 0.0 | 0.00 | 0.00 | 0.00 | 87 | 1007.9 |
| 20260506070901 | 77 | 146 | 0.0 | 0.0 | 0.00 | 0.00 | 0.00 | 87 | 1007.8 |
| 20260506070357 | 77 | 154 | 0.0 | 0.0 | 0.00 | 0.00 | 0.00 | 87 | 1007.9 |
| 20260506062335 | 77 | 335 | 3.0 | 3.0 | 0.00 | 0.00 | 0.00 | 86 | 1008.0 |
| 20260506061830 | 77 | 145 | 0.0 | 0.0 | 0.00 | 0.00 | 0.00 | 86 | 1007.9 |
| 20260506061327 | 77 | 158 | 0.0 | 0.0 | 0.00 | 0.00 | 0.00 | 86 | 1007.7 |
| 20260506060826 | 77 | 192 | 1.0 | 1.0 | 0.00 | 0.00 | 0.00 | 86 | 1008.0 |
| 20260506060323 | 77 | 145 | 0.0 | 0.0 | 0.00 | 0.00 | 0.00 | 86 | 1007.8 |
| 20260506051255 | 78 | 164 | 0.0 | 0.0 | 0.00 | 0.00 | 0.00 | 85 | 1008.2 |
| 20260506050753 | 78 | 129 | 3.0 | 6.0 | 0.00 | 0.00 | 0.00 | 85 | 1007.9 |
| 20260506050250 | 78 | 164 | 0.0 | 0.0 | 0.00 | 0.00 | 0.00 | 85 | 1007.9 |
| 20260506044741 | 78 | 183 | 0.0 | 1.0 | 0.00 | 0.00 | 0.00 | 84 | 1007.9 |
| 20260506044238 | 78 | 147 | 1.0 | 2.0 | 0.00 | 0.00 | 0.00 | 84 | 1007.8 |
| 20260506043735 | 78 | 152 | 0.0 | 0.0 | 0.00 | 0.00 | 0.00 | 84 | 1007.9 |
| 20260506043233 | 78 | 159 | 0.0 | 0.0 | 0.00 | 0.00 | 0.00 | 84 | 1007.8 |
| 20260506042731 | 78 | 144 | 1.0 | 3.0 | 0.00 | 0.00 | 0.00 | 84 | 1007.6 |
| 20260506042229 | 78 | 148 | 2.0 | 3.0 | 0.00 | 0.00 | 0.00 | 84 | 1007.5 |
| 20260506041728 | 78 | 265 | 5.0 | 6.0 | 0.00 | 0.00 | 0.00 | 84 | 1007.4 |
| 20260506041224 | 78 | 155 | 0.0 | 0.0 | 0.00 | 0.00 | 0.00 | 84 | 1007.4 |
| 20260506040722 | 78 | 151 | 1.0 | 2.0 | 0.00 | 0.00 | 0.00 | 83 | 1007.3 |
| 20260506040219 | 78 | 157 | 1.0 | 2.0 | 0.00 | 0.00 | 0.00 | 83 | 1007.5 |
| 20260506035715 | 78 | 157 | 2.0 | 2.0 | 0.00 | 0.00 | 0.00 | 83 | 1007.5 |
| 20260506035212 | 78 | 178 | 4.0 | 6.0 | 0.00 | 0.00 | 0.00 | 83 | 1007.3 |
| 20260506034709 | 78 | 162 | 1.0 | 1.0 | 0.00 | 0.00 | 0.00 | 83 | 1007.4 |
| 20260506034206 | 78 | 140 | 0.0 | 0.0 | 0.00 | 0.00 | 0.00 | 82 | 1007.2 |
| 20260506033703 | 78 | 186 | 5.0 | 9.0 | 0.00 | 0.00 | 0.00 | 82 | 1007.3 |
| 20260506033200 | 78 | 141 | 0.0 | 0.0 | 0.00 | 0.00 | 0.00 | 82 | 1007.5 |
| 20260506032657 | 79 | 170 | 0.0 | 0.0 | 0.00 | 0.00 | 0.00 | 82 | 1007.4 |
| 20260506032154 | 79 | 183 | 2.0 | 3.0 | 0.00 | 0.00 | 0.00 | 82 | 1007.4 |
| 20260506031651 | 79 | 169 | 0.0 | 0.0 | 0.00 | 0.00 | 0.00 | 82 | 1007.1 |
| 20260506031148 | 79 | 174 | 0.0 | 0.0 | 0.00 | 0.00 | 0.00 | 82 | 1007.3 |
| 20260506030647 | 79 | 139 | 3.0 | 5.0 | 0.00 | 0.00 | 0.00 | 82 | 1006.9 |
| 20260506030144 | 79 | 178 | 0.0 | 1.0 | 0.00 | 0.00 | 0.00 | 82 | 1007.1 |
| 20260506025640 | 79 | 153 | 0.0 | 0.0 | 0.00 | 0.00 | 0.00 | 81 | 1007.2 |
| 20260506025136 | 79 | 160 | 0.0 | 0.0 | 0.00 | 0.00 | 0.00 | 81 | 1007.0 |
| 20260506024634 | 79 | 162 | 0.0 | 1.0 | 0.00 | 0.00 | 0.00 | 81 | 1007.3 |
| 20260506024130 | 79 | 179 | 0.0 | 0.0 | 0.00 | 0.00 | 0.00 | 81 | 1007.0 |
| 20260506023626 | 79 | 173 | 0.0 | 0.0 | 0.00 | 0.00 | 0.00 | 81 | 1006.8 |
| 20260506023124 | 79 | 116 | 3.0 | 3.0 | 0.00 | 0.00 | 0.00 | 81 | 1006.7 |
| 20260506022621 | 79 | 164 | 3.0 | 3.0 | 0.00 | 0.00 | 0.00 | 81 | 1006.7 |
| 20260506022118 | 79 | 170 | 2.0 | 2.0 | 0.00 | 0.00 | 0.00 | 81 | 1006.6 |
| 20260506021616 | 79 | 161 | 1.0 | 1.0 | 0.00 | 0.00 | 0.00 | 81 | 1006.6 |
| 20260506021113 | 79 | 126 | 0.0 | 0.0 | 0.00 | 0.00 | 0.00 | 81 | 1006.6 |
| 20260506020610 | 80 | 163 | 0.0 | 0.0 | 0.00 | 0.00 | 0.00 | 81 | 1006.5 |
| 20260506020108 | 80 | 182 | 2.0 | 2.0 | 0.00 | 0.00 | 0.00 | 81 | 1006.3 |
| 20260506015605 | 80 | 155 | 0.0 | 0.0 | 0.00 | 0.00 | 0.00 | 81 | 1006.4 |
| 20260506015102 | 80 | 191 | 2.0 | 2.0 | 0.00 | 0.00 | 0.00 | 81 | 1006.3 |
| 20260506014600 | 80 | 159 | 1.0 | 2.0 | 0.00 | 0.00 | 0.00 | 81 | 1006.0 |
| 20260506014055 | 80 | 168 | 2.0 | 3.0 | 0.00 | 0.00 | 0.00 | 81 | 1006.2 |
| 20260506013553 | 80 | 153 | 0.0 | 0.0 | 0.00 | 0.00 | 0.00 | 81 | 1005.8 |
| 20260506013050 | 80 | 162 | 0.0 | 0.0 | 0.00 | 0.00 | 0.00 | 80 | 1005.9 |
| 20260506012546 | 80 | 152 | 0.0 | 0.0 | 0.00 | 0.00 | 0.00 | 80 | 1006.0 |
| 20260506012043 | 80 | 177 | 2.0 | 2.0 | 0.00 | 0.00 | 0.00 | 80 | 1005.7 |
| 20260506011541 | 80 | 220 | 0.0 | 0.0 | 0.00 | 0.00 | 0.00 | 79 | 1005.7 |
| 20260506011036 | 80 | 156 | 0.0 | 0.0 | 0.00 | 0.00 | 0.00 | 79 | 1005.6 |
| 20260506010531 | 80 | 165 | 2.0 | 3.0 | 0.00 | 0.00 | 0.00 | 79 | 1005.5 |
| 20260506010027 | 80 | 218 | 2.0 | 3.0 | 0.00 | 0.00 | 0.00 | 79 | 1005.7 |
| 20260506005524 | 80 | 158 | 0.0 | 0.0 | 0.00 | 0.00 | 0.00 | 79 | 1005.3 |
| 20260506005020 | 80 | 212 | 1.0 | 2.0 | 0.00 | 0.00 | 0.00 | 79 | 1005.6 |
| 20260506004517 | 80 | 146 | 0.0 | 0.0 | 0.00 | 0.00 | 0.00 | 79 | 1005.3 |
| 20260506004014 | 80 | 155 | 0.0 | 0.0 | 0.00 | 0.00 | 0.00 | 79 | 1005.4 |
| 20260506003510 | 81 | 88 | 0.0 | 2.0 | 0.00 | 0.00 | 0.00 | 79 | 1005.1 |
| 20260506003006 | 81 | 152 | 0.0 | 0.0 | 0.00 | 0.00 | 0.00 | 78 | 1005.3 |
| 20260506002502 | 81 | 150 | 0.0 | 0.0 | 0.00 | 0.00 | 0.00 | 78 | 1005.1 |
| 20260506001958 | 81 | 189 | 1.0 | 1.0 | 0.00 | 0.00 | 0.00 | 78 | 1005.2 |
| 20260506001455 | 81 | 210 | 1.0 | 1.0 | 0.00 | 0.00 | 0.00 | 78 | 1005.6 |
| 20260506000952 | 81 | 207 | 0.0 | 1.0 | 0.00 | 0.00 | 0.00 | 78 | 1005.2 |
| 20260506000449 | 82 | 160 | 0.0 | 0.0 | 0.00 | 0.00 | 0.00 | 78 | 1005.2 |
| 20260505235946 | 82 | 155 | 0.0 | 0.0 | 0.00 | 0.00 | 0.00 | 78 | 1005.3 |
| 20260505235445 | 82 | 172 | 0.0 | 0.0 | 0.00 | 0.00 | 0.00 | 78 | 1005.2 |
| 20260505234941 | 82 | 151 | 0.0 | 0.0 | 0.00 | 0.00 | 0.00 | 78 | 1005.3 |
| 20260505234439 | 82 | 158 | 0.0 | 1.0 | 0.00 | 0.00 | 0.00 | 77 | 1005.1 |
| 20260505233935 | 82 | 245 | 2.0 | 2.0 | 0.00 | 0.00 | 0.00 | 77 | 1005.2 |
| 20260505233433 | 82 | 168 | 0.0 | 0.0 | 0.00 | 0.00 | 0.00 | 77 | 1005.4 |
| 20260505232930 | 82 | 172 | 1.0 | 1.0 | 0.00 | 0.00 | 0.00 | 77 | 1005.3 |
| 20260505232428 | 83 | 149 | 0.0 | 0.0 | 0.00 | 0.00 | 0.00 | 77 | 1005.1 |
| 20260505231925 | 83 | 150 | 0.0 | 0.0 | 0.00 | 0.00 | 0.00 | 77 | 1005.2 |
| 20260505231422 | 82 | 139 | 0.0 | 0.0 | 0.00 | 0.00 | 0.00 | 77 | 1005.4 |
| 20260505230920 | 82 | 144 | 4.0 | 5.0 | 0.00 | 0.00 | 0.00 | 76 | 1005.3 |
| 20260505230418 | 83 | 271 | 1.0 | 2.0 | 0.00 | 0.00 | 0.00 | 76 | 1005.4 |
| 20260505225914 | 83 | 10 | 1.0 | 2.0 | 0.00 | 0.00 | 0.00 | 76 | 1005.3 |
| 20260505225411 | 83 | 173 | 0.0 | 1.0 | 0.00 | 0.00 | 0.00 | 76 | 1005.3 |
| 20260505224906 | 84 | 106 | 0.0 | 0.0 | 0.00 | 0.00 | 0.00 | 75 | 1005.3 |
| 20260505224404 | 84 | 272 | 2.0 | 3.0 | 0.00 | 0.00 | 0.00 | 75 | 1005.3 |
| 20260505223901 | 84 | 184 | 2.0 | 3.0 | 0.00 | 0.00 | 0.00 | 75 | 1004.9 |
| 20260505223358 | 84 | 204 | 3.0 | 3.0 | 0.00 | 0.00 | 0.00 | 75 | 1005.2 |
| 20260505222853 | 84 | 199 | 3.0 | 3.0 | 0.00 | 0.00 | 0.00 | 74 | 1005.3 |
| 20260505222350 | 84 | 161 | 1.0 | 1.0 | 0.00 | 0.00 | 0.00 | 74 | 1005.2 |
| 20260505221847 | 84 | 224 | 3.0 | 5.0 | 0.00 | 0.00 | 0.00 | 74 | 1005.1 |
| 20260505221344 | 84 | 154 | 0.0 | 0.0 | 0.00 | 0.00 | 0.00 | 75 | 1005.3 |
| 20260505220841 | 85 | 191 | 6.0 | 8.0 | 0.00 | 0.00 | 0.00 | 73 | 1005.1 |
| 20260505220338 | 85 | 300 | 3.0 | 3.0 | 0.00 | 0.00 | 0.00 | 73 | 1005.3 |
| 20260505215836 | 85 | 191 | 3.0 | 5.0 | 0.00 | 0.00 | 0.00 | 73 | 1005.2 |
| 20260505215333 | 85 | 243 | 2.0 | 3.0 | 0.00 | 0.00 | 0.00 | 74 | 1005.2 |
| 20260505214831 | 85 | 199 | 5.0 | 8.0 | 0.00 | 0.00 | 0.00 | 73 | 1005.5 |
| 20260505214329 | 84 | 182 | 2.0 | 3.0 | 0.00 | 0.00 | 0.00 | 75 | 1005.6 |
| 20260505213825 | 84 | 149 | 0.0 | 1.0 | 0.00 | 0.00 | 0.00 | 74 | 1005.8 |